sat.trackr.live / text

‹ back to catalog

STARLINK-11595 [DTC]

NORAD 63669 · 2025-085F

PAYLOAD ACTIVE UNKNOWN

§ Identity

Operator
Country
US
Launch date
2025-04-28
Launch site
AFETR
Launch vehicle
Mass (kg)
RCS (m²)

Purposes: comms

External: N2YO · Heavens-Above · Gunter

§ Orbital elements

Epoch: 2026-05-25T03:29:28.144896Z

Period
91.66 min
Inclination
43.0012°
Eccentricity
0.0001258
Mean motion
15.70949891 rev/d
Perigee alt
355.3 km
Apogee alt
357.0 km
Semi-major
6,734.3 km
B*
1.1740e-3
RAAN
177.8057°
Arg perigee
271.9599°
Mean anomaly
88.1124°
Rev number
6,291

§ Raw data

STARLINK-11595 [DTC]1 63669U 25085F   26145.14546464  .00153716  00000+0  11740-2 0  99992 63669  43.0012 177.8057 0001258 271.9599  88.1124 15.70949891 62910

JSON: /api/v1/satellites/63669 · /tle

For live sub-satellite position, see the globe view (requires WebGL).

§ Visibility from observer

Set your observer location to see the next 7 days of passes ≥ 10°. The values pass through the URL so the page stays shareable.

No JS? Fill the form by hand. The geolocation button needs JavaScript.